Wind_Speed
53 60 60 65 68 65 63 57 57 59 59 56 64 67 69 71 72 74 75 73 74 76 65 49 48 48 44 45 53 64 74 78 78 82 80 78 76 76 76 77 75 74 71
55 66 64 65 67 67 59 57 57 59 57 61 66 70 72 72 74 76 74 77 76 80 59 48 42 38 39 42 45 59 65 75 84 85 85 87 87 83 79 82 87 88 85
64 67 65 67 67 64 58 58 59 61 63 65 70 73 74 74 74 75 76 75 76 84 65 50 44 42 42 42 44 49 48 52 61 72 83 92 93 92 93 91 82 83 83
67 63 67 67 66 62 60 61 63 65 68 69 73 76 75 75 76 77 79 78 80 83 75 58 51 48 48 48 50 53 57 61 66 69 74 77 82 92 98 97 95 92 79
63 63 65 64 67 65 63 65 70 72 70 73 76 76 77 78 79 81 81 81 82 84 84 71 59 59 57 57 59 61 66 69 71 73 75 79 83 87 89 94 99 99 102
63 62 63 66 66 65 69 73 72 70 73 75 74 77 81 80 81 82 83 85 84 89 89 83 79 70 68 70 72 74 76 77 76 78 78 79 81 85 88 91 96 100 100
65 64 64 66 67 70 73 72 71 74 75 75 76 79 81 83 82 83 86 87 87 93 93 98 91 80 78 80 81 84 84 84 84 81 79 73 75 81 86 87 91 96 102
67 68 73 75 71 71 72 71 74 76 76 77 79 80 80 82 87 89 90 91 94 99 99 102 90 84 84 86 88 89 88 90 82 78 77 74 68 67 72 80 86 92 96
75 74 75 75 71 69 72 74 76 76 77 80 81 82 85 85 88 91 93 95 100 101 101 99 95 92 93 95 95 94 92 89 84 81 78 70 67 67 70 75 80 84 85
74 73 70 68 68 73 75 75 76 75 80 80 82 85 87 90 90 93 95 100 102 107 104 104 98 97 99 99 100 100 94 89 86 85 79 75 70 74 75 76 79 82 80
75 71 68 72 75 76 78 79 74 77 80 83 84 85 89 91 95 97 98 104 109 112 112 108 106 106 106 104 102 100 96 91 87 85 81 75 78 80 79 77 77 79 76
73 71 73 74 77 80 81 76 77 77 81 84 86 87 90 93 98 102 105 110 112 115 116 115 110 111 107 105 103 103 98 92 89 84 81 82 86 88 82 74 74 73 68
73 77 78 79 78 78 77 77 80 82 84 87 86 90 94 97 102 106 109 114 115 119 121 119 116 112 111 107 102 99 97 94 87 85 90 91 91 87 81 75 70 66 65
79 78 81 80 78 76 75 79 83 88 93 96 93 94 100 106 111 111 114 118 121 123 125 122 119 117 113 106 102 98 95 88 91 94 96 91 84 78 75 70 66 63 62
78 82 80 82 83 82 80 83 86 92 98 104 100 100 107 114 116 119 120 122 127 129 131 126 121 115 110 106 102 98 96 97 97 94 90 85 79 75 68 65 63 60 61
83 82 81 84 85 87 90 92 95 101 102 98 105 112 114 117 121 123 125 127 130 135 137 128 122 117 112 105 102 100 101 96 94 92 86 80 75 70 65 62 59 57 60
87 85 86 90 91 93 97 97 101 103 97 110 115 117 120 121 124 127 131 133 135 139 142 131 124 119 113 109 104 101 99 97 95 86 79 75 70 66 62 61 58 56 56
85 87 94 97 97 101 105 108 104 102 108 114 119 120 124 126 131 134 135 143 146 144 141 128 123 117 111 108 105 103 101 94 86 80 74 69 66 62 60 58 57 56 56
90 97 100 103 104 106 108 110 110 113 116 121 127 128 130 131 133 137 139 140 140 141 130 120 115 112 109 105 103 100 95 86 79 74 68 63 61 59 58 57 56 53 53
101 102 103 106 108 109 111 114 118 121 125 128 129 130 135 135 136 139 141 145 143 133 124 116 113 109 105 103 100 93 86 80 73 67 62 60 58 55 54 52 50 51 50
105 106 108 109 111 112 115 116 122 126 130 132 133 135 136 141 144 146 149 146 140 127 118 112 108 105 102 98 91 84 78 72 67 62 58 57 55 51 49 47 46 47 48
109 111 114 115 117 118 120 124 128 132 133 136 138 139 140 143 149 152 152 144 131 120 114 107 104 101 96 89 82 76 70 66 62 58 55 52 49 47 46 45 44 43 43
113 114 117 117 118 122 126 129 132 136 137 140 141 142 146 152 155 155 142 130 118 111 107 102 96 90 85 79 72 69 64 59 57 53 51 46 45 44 44 41 41 38 37
118 117 118 121 126 127 130 132 136 139 141 143 145 148 155 158 151 143 127 115 109 102 97 90 85 80 74 69 65 62 58 54 52 48 45 44 43 42 40 39 37 35 34
120 122 126 129 130 133 133 136 141 144 145 150 154 161 159 151 138 122 113 108 103 94 86 81 76 71 67 63 59 55 52 49 46 43 41 41 41 38 36 37 35 33 32
131 132 130 130 132 136 139 146 147 149 153 156 162 160 149 136 121 111 105 99 93 86 79 73 69 65 61 57 54 50 48 45 42 40 39 39 37 36 35 34 33 31 31
Wind_Direction
298 299 310 306 306 306 307 308 310 314 314 314 322 323 323 323 324 324 324 328 330 334 328 314 307 295 281 276 261 250 248 252 254 257 261 269 271 274 275 274 275 274 271
300 301 305 304 303 303 304 306 308 311 311 316 320 323 322 323 322 324 325 329 333 338 328 316 309 303 289 278 277 265 264 260 259 261 266 269 269 266 267 272 273 272 271
296 300 301 303 302 303 302 303 306 309 311 316 320 321 321 321 320 322 325 329 335 339 331 322 309 302 293 285 277 274 272 266 264 264 265 264 265 267 267 264 265 268 267
294 299 301 301 300 299 298 300 304 309 313 317 319 320 319 318 319 322 324 329 336 337 335 326 317 312 305 297 293 292 291 288 283 276 270 266 262 260 259 259 256 257 258
294 296 298 298 298 296 296 298 304 308 313 318 319 319 318 318 319 320 323 328 331 334 336 332 322 317 313 311 308 304 300 296 291 283 275 272 269 266 262 258 258 258 255
293 297 296 298 296 295 297 300 304 310 316 317 318 318 317 317 318 319 324 327 330 332 332 333 332 321 317 316 315 313 309 305 302 297 291 283 278 271 263 260 259 259 257
294 295 298 300 297 296 297 300 304 312 316 316 316 317 315 316 317 320 324 327 329 330 330 332 330 324 320 317 317 315 311 309 308 303 297 290 281 276 272 266 260 256 256
290 293 295 299 299 296 295 299 309 314 314 315 314 315 316 317 320 322 325 326 327 330 330 330 325 323 320 316 315 314 314 311 308 308 305 302 294 285 276 270 267 262 257
292 293 295 297 293 293 299 309 313 314 314 312 312 314 315 319 320 322 324 324 327 328 329 327 324 322 319 318 318 316 315 313 313 314 311 304 295 290 289 282 276 268 260
290 294 292 291 292 300 306 310 312 312 311 309 312 314 316 318 319 321 321 323 325 327 327 327 324 322 319 318 318 317 316 314 315 312 309 304 299 298 295 291 282 275 272
289 290 288 293 301 305 306 309 310 310 308 309 313 315 317 317 319 320 321 323 324 327 327 326 324 322 321 320 318 316 315 316 314 312 307 307 309 307 299 294 288 282 278
286 288 293 300 303 304 306 307 310 309 307 310 314 316 315 315 317 320 321 321 322 325 325 326 322 323 320 318 316 315 315 316 313 308 312 313 311 306 300 294 290 286 281
290 296 298 300 299 302 305 307 309 307 307 309 313 314 314 316 317 318 318 321 322 323 325 323 321 320 320 318 316 315 315 313 310 315 314 311 308 304 301 296 292 288 284
294 295 297 297 298 300 303 305 307 307 309 310 315 316 317 316 315 317 319 320 321 322 324 322 321 320 318 317 315 314 311 313 317 314 311 309 307 303 299 297 293 287 284
293 295 298 298 298 302 306 307 309 310 310 314 317 315 312 313 315 317 317 319 321 322 323 322 320 319 318 315 314 314 319 317 311 309 310 309 306 303 299 296 292 287 285
290 292 293 297 300 305 306 309 311 311 312 313 313 312 313 313 314 315 317 319 320 321 323 321 319 319 317 316 317 317 313 311 311 312 310 307 305 302 300 296 292 288 285
292 296 299 301 305 306 307 309 310 314 312 311 310 311 312 312 313 314 318 319 319 322 323 322 320 318 317 318 315 312 311 312 311 310 308 305 303 300 299 296 292 288 284
296 297 300 303 305 306 307 307 312 309 308 307 308 309 311 313 315 316 317 318 323 321 319 317 316 314 314 313 312 312 310 311 310 309 306 304 302 300 298 295 292 288 284
291 295 300 302 304 305 306 307 306 306 307 308 309 310 312 313 313 315 318 317 317 317 315 313 313 313 311 310 308 309 310 310 309 305 304 304 302 299 297 295 292 287 283
293 295 298 301 302 304 305 305 303 304 306 307 308 308 310 311 312 313 315 316 315 314 313 313 312 311 309 307 308 308 309 307 306 305 305 303 299 296 296 295 292 289 286
292 295 298 300 301 301 301 301 301 302 304 304 305 307 309 311 312 314 314 315 314 313 311 310 309 307 306 306 306 307 306 305 304 304 303 301 298 299 298 295 292 289 287
293 294 296 298 299 299 299 300 300 301 301 303 305 307 308 309 311 313 313 313 313 310 308 307 306 305 305 304 304 304 303 302 302 302 302 300 301 300 299 298 295 291 288
291 292 294 295 295 294 296 298 299 299 300 303 305 306 307 309 310 312 312 311 309 307 306 305 304 303 302 303 303 301 300 300 300 300 300 302 302 301 302 300 294 290 288
290 291 291 290 292 293 295 297 297 298 300 303 304 305 307 308 309 309 309 309 307 306 305 304 302 301 301 301 301 299 299 299 299 300 302 302 302 303 302 299 298 294 290
287 288 289 290 291 293 294 294 296 299 300 302 303 306 307 308 309 310 309 308 306 305 305 302 301 301 300 299 298 298 298 297 298 301 302 303 303 300 300 300 301 298 295
287 288 288 289 290 291 293 296 298 299 300 302 304 305 306 308 308 308 308 306 305 304 302 302 300 299 298 296 296 297 296 297 299 301 302 300 297 297 298 297 298 300 297
Height
10817 10805 10814 10806 10801 10800 10796 10791 10785 10782 10776 10771 10766 10760 10754 10747 10741 10734 10726 10718 10710 10699 10688 10680 10672 10667 10665 10667 10668 10671 10667 10660 10658 10653 10649 10645 10641 10637 10635 10631 10630 10630 10631
10803 10795 10802 10797 10792 10788 10786 10782 10776 10771 10765 10760 10754 10748 10743 10736 10729 10721 10714 10706 10695 10686 10678 10672 10666 10661 10659 10657 10654 10656 10654 10647 10643 10637 10633 10630 10626 10621 10619 10614 10608 10606 10608
10792 10788 10788 10786 10783 10777 10772 10768 10764 10760 10754 10748 10741 10735 10729 10723 10716 10709 10701 10691 10683 10674 10666 10662 10657 10652 10648 10644 10641 10638 10636 10631 10624 10619 10613 10608 10603 10599 10595 10597 10589 10583 10584
10781 10781 10777 10775 10772 10767 10762 10757 10753 10747 10741 10735 10728 10722 10715 10708 10701 10694 10686 10678 10668 10659 10652 10649 10645 10639 10634 10628 10624 10618 10613 10609 10602 10594 10589 10582 10578 10573 10570 10566 10567 10565 10561
10772 10772 10768 10765 10759 10755 10751 10746 10739 10733 10727 10722 10714 10707 10700 10694 10687 10680 10672 10664 10655 10647 10640 10635 10631 10624 10619 10614 10607 10600 10591 10582 10573 10566 10559 10553 10547 10543 10542 10541 10534 10532 10536
10758 10760 10756 10752 10747 10742 10737 10731 10725 10719 10713 10707 10700 10693 10686 10680 10674 10667 10658 10650 10640 10632 10623 10616 10611 10603 10596 10590 10583 10575 10565 10558 10548 10536 10528 10520 10513 10509 10505 10504 10505 10503 10501
10743 10746 10744 10740 10735 10730 10724 10719 10713 10707 10699 10692 10686 10680 10673 10664 10658 10651 10642 10633 10624 10614 10604 10596 10586 10577 10569 10560 10553 10545 10535 10525 10515 10505 10494 10489 10483 10477 10468 10468 10470 10470 10467
10736 10735 10732 10729 10724 10718 10712 10707 10701 10694 10686 10679 10673 10666 10659 10650 10637 10629 10620 10613 10604 10595 10582 10574 10565 10557 10547 10538 10528 10519 10508 10496 10487 10476 10464 10451 10445 10443 10440 10435 10435 10435 10433
10720 10722 10718 10716 10710 10703 10698 10692 10686 10679 10671 10663 10658 10651 10642 10636 10626 10612 10604 10594 10583 10574 10566 10552 10544 10535 10525 10514 10504 10494 10485 10470 10459 10447 10438 10428 10420 10413 10406 10401 10399 10395 10398
10707 10710 10702 10701 10693 10688 10683 10679 10672 10663 10655 10646 10642 10635 10624 10615 10606 10598 10587 10579 10571 10561 10551 10539 10527 10516 10505 10492 10478 10466 10456 10446 10434 10424 10414 10404 10397 10389 10379 10369 10363 10361 10364
10692 10694 10690 10683 10678 10673 10668 10664 10659 10649 10636 10630 10626 10619 10607 10596 10589 10580 10568 10555 10545 10536 10527 10514 10500 10489 10477 10464 10452 10440 10431 10422 10412 10399 10391 10380 10370 10361 10352 10342 10333 10329 10333
10675 10676 10674 10669 10662 10656 10650 10646 10642 10634 10623 10615 10608 10601 10591 10581 10568 10554 10546 10535 10519 10511 10500 10489 10478 10464 10452 10443 10431 10416 10406 10395 10386 10376 10362 10355 10345 10333 10325 10318 10308 10302 10303
10660 10656 10652 10652 10651 10647 10638 10628 10621 10613 10604 10599 10598 10587 10572 10560 10551 10543 10532 10517 10501 10490 10479 10466 10454 10443 10431 10419 10405 10393 10382 10372 10362 10348 10337 10330 10323 10311 10298 10292 10285 10280 10276
10645 10641 10634 10633 10630 10631 10628 10620 10605 10591 10579 10571 10575 10566 10550 10537 10528 10521 10509 10496 10481 10468 10459 10445 10430 10418 10405 10392 10379 10369 10360 10345 10331 10324 10313 10304 10296 10285 10276 10269 10263 10258 10254
10626 10622 10618 10609 10606 10608 10608 10603 10590 10577 10563 10546 10537 10533 10530 10522 10508 10498 10492 10478 10463 10446 10434 10421 10408 10395 10381 10367 10353 10341 10325 10319 10312 10302 10291 10278 10268 10260 10255 10249 10244 10238 10233
10614 10611 10605 10596 10590 10583 10579 10576 10568 10558 10545 10528 10525 10519 10513 10502 10491 10477 10467 10455 10438 10425 10408 10395 10381 10367 10358 10343 10328 10315 10308 10299 10290 10277 10268 10256 10247 10239 10233 10229 10225 10220 10216
10590 10584 10577 10571 10567 10562 10553 10551 10546 10531 10517 10513 10509 10498 10489 10482 10469 10455 10441 10428 10415 10398 10379 10358 10348 10337 10325 10313 10305 10297 10285 10275 10266 10256 10246 10235 10227 10221 10215 10210 10205 10202 10200
10558 10554 10550 10547 10544 10535 10525 10521 10515 10511 10508 10496 10489 10481 10467 10453 10439 10424 10414 10401 10369 10360 10351 10339 10329 10319 10307 10294 10282 10273 10264 10253 10244 10234 10225 10216 10209 10202 10197 10192 10187 10184 10182
10541 10539 10532 10525 10523 10517 10509 10499 10493 10488 10480 10470 10458 10446 10437 10428 10417 10404 10388 10378 10369 10351 10336 10326 10310 10296 10286 10273 10262 10253 10243 10232 10223 10214 10207 10200 10193 10185 10180 10175 10170 10166 10165
10524 10521 10517 10510 10504 10496 10486 10475 10465 10458 10456 10446 10438 10428 10417 10409 10396 10385 10374 10363 10348 10331 10313 10298 10286 10274 10262 10252 10240 10231 10222 10213 10204 10195 10189 10183 10177 10171 10165 10160 10154 10148 10147
10505 10501 10495 10491 10485 10479 10477 10467 10455 10445 10435 10425 10417 10410 10397 10378 10362 10356 10347 10332 10316 10302 10287 10276 10263 10251 10240 10229 10220 10209 10201 10193 10185 10179 10174 10167 10162 10156 10150 10146 10141 10136 10131
10484 10480 10474 10468 10463 10458 10452 10446 10437 10425 10412 10403 10393 10383 10372 10360 10348 10333 10319 10304 10290 10275 10262 10251 10239 10227 10216 10207 10200 10191 10183 10175 10169 10163 10158 10154 10147 10142 10137 10132 10127 10123 10119
10467 10465 10458 10451 10442 10436 10434 10424 10413 10400 10388 10381 10371 10358 10345 10333 10320 10307 10292 10278 10265 10249 10237 10226 10214 10204 10194 10187 10181 10172 10166 10160 10154 10149 10144 10139 10134 10130 10125 10121 10116 10113 10109
10446 10444 10437 10434 10427 10420 10414 10401 10385 10374 10367 10358 10345 10334 10322 10309 10296 10280 10264 10249 10234 10224 10212 10201 10192 10183 10176 10170 10163 10157 10151 10145 10141 10136 10130 10127 10123 10119 10115 10111 10106 10102 10098
10425 10425 10419 10411 10402 10394 10390 10373 10360 10350 10343 10331 10319 10306 10291 10278 10265 10251 10235 10219 10206 10196 10187 10178 10170 10163 10158 10152 10147 10142 10137 10133 10128 10123 10120 10116 10112 10110 10107 10102 10097 10092 10089
10401 10399 10395 10389 10379 10371 10363 10346 10332 10320 10312 10301 10289 10274 10260 10247 10234 10221 10208 10194 10182 10173 10165 10158 10151 10145 10141 10136 10132 10128 10123 10120 10116 10112 10110 10107 10104 10101 10097 10094 10088 10084 10080